Futenma MCAF, Japan

9:54 PM JST on April 22, 2018 (GMT +0900)
Futenma Marine Corps Air Station

Weather History for ROTM - May, 2013

Change the Weather History Date:

Sunday, May 19, 2013

  Actual Average Record
Temperature  
Mean Temperature 78 °F -  
Max Temperature 82 °F 81 °F - ()
Min Temperature 73 °F 71 °F - ()
Cooling Degree Days 12    
Growing Degree Days 28 (Base 50)    
Moisture  
Dew Point 74 °F    
Average Humidity 89    
Maximum Humidity 94    
Minimum Humidity 79    
Precipitation  
Precipitation 1.58 in - - ()
Sea Level Pressure  
Sea Level Pressure 29.62 in    
Wind  
Wind Speed 8 mph ()    
Max Wind Speed 14 mph    
Max Gust Speed 26 mph    
Visibility 4.4 miles    
Events Rain , Thunderstorm    
T = Trace of Precipitation, MM = Missing Value Source: Averaged Metar Reports

Daily Weather History Graph

Daily Weather History Graph

Search for Another Location

Airport or City:

Astronomy

May. 19, 2013 Rise Set
Actual Time 5:40 AM JST 7:10 PM JST
Civil Twilight 5:15 AM JST 7:35 PM JST
Nautical Twilight 4:45 AM JST 8:06 PM JST
Astronomical Twilight 4:13 AM JST 8:37 PM JST
Moon 1:13 PM JST (5/19) 1:07 AM JST (5/19)
Length of Visible Light 14h 20m
Length of Day
13h 29m
First Quarter, 59% of the Moon is Illuminated
May 19
First Quarter
May 25
Full
Jun 1
Last Quarter
Jun 9
New
Jun 17
First Quarter

Hourly Weather History & Observations

Time (JST) Temp. Heat Index Dew Point Humidity Pressure Visibility Wind Dir Wind Speed Gust Speed Precip Events Conditions
12:58 AM 75.9 °F - 72.0 °F 87% 29.65 in 6.2 mi WSW 8.1 mph - N/A   Scattered Clouds
1:58 AM 75.9 °F - 72.0 °F 87% 29.65 in 6.2 mi WSW 9.2 mph - N/A   Scattered Clouds
2:58 AM 75.9 °F - 73.0 °F 91% 29.64 in 6.2 mi WSW 8.1 mph - N/A   Scattered Clouds
3:58 AM 75.9 °F - 73.0 °F 91% 29.63 in 6.2 mi WSW 5.8 mph - N/A   Mostly Cloudy
4:58 AM 77.0 °F - 73.0 °F 88% 29.62 in 6.2 mi WSW 8.1 mph - N/A   Mostly Cloudy
5:58 AM 77.0 °F - 73.9 °F 90% 29.62 in 5.6 mi WSW 6.9 mph - N/A   Overcast
6:58 AM 77.0 °F - 73.9 °F 90% 29.62 in 5.6 mi SW 3.5 mph - N/A   Overcast
7:58 AM 78.1 °F - 73.9 °F 87% 29.62 in 5.6 mi SSW 5.8 mph - N/A   Mostly Cloudy
8:58 AM 80.1 °F 84.2 °F 73.0 °F 79% 29.63 in 6.2 mi SW 6.9 mph - N/A   Mostly Cloudy
9:35 AM 78.8 °F - 73.4 °F 83% 29.65 in 0.5 mi WSW 11.5 mph - N/A Rain Heavy Rain Showers
9:58 AM 78.1 °F - 73.9 °F 87% 29.65 in 1.0 mi WSW 9.2 mph 17.3 mph 0.12 in Rain Rain Showers
10:05 AM 78.8 °F - 73.4 °F 83% 29.65 in 0.5 mi SW 13.8 mph - N/A Rain Heavy Rain Showers
10:24 AM 78.8 °F - 75.2 °F 89% 29.63 in - SW 9.2 mph 16.1 mph N/A Rain Light Rain Showers
10:58 AM 81.0 °F 87.9 °F 77.0 °F 88% 29.62 in 5.6 mi SSW 11.5 mph 18.4 mph 0.36 in   Haze
11:58 AM 81.0 °F 87.3 °F 75.9 °F 85% 29.61 in 5.6 mi SW 12.7 mph - N/A   Haze
12:58 PM 82.0 °F 90.2 °F 77.0 °F 85% 29.60 in 5.6 mi SW 13.8 mph 20.7 mph N/A   Haze
1:26 PM 80.6 °F 88.1 °F 78.8 °F 94% 29.60 in 5.0 mi SW 11.5 mph 20.7 mph N/A   Overcast
1:58 PM 81.0 °F 87.9 °F 77.0 °F 88% 29.60 in 5.0 mi SW 12.7 mph 18.4 mph 0.01 in   Drizzle
2:22 PM 80.6 °F 87.1 °F 77.0 °F 89% 29.59 in 0.5 mi West 10.4 mph 23.0 mph N/A Rain Heavy Rain Showers
2:40 PM 78.8 °F - 75.2 °F 89% 29.60 in - West 12.7 mph 23.0 mph N/A Rain , Thunderstorm Thunderstorms and Rain
2:58 PM 79.0 °F - 75.9 °F 90% 29.60 in 0.5 mi West 12.7 mph 21.9 mph 0.68 in Rain , Thunderstorm Heavy Thunderstorms and Rain
3:01 PM 77.0 °F - 75.2 °F 94% 29.60 in 1.5 mi West 12.7 mph 26.5 mph N/A Rain , Thunderstorm Thunderstorms and Rain
3:36 PM 78.8 °F - 75.2 °F 89% 29.58 in - West 6.9 mph - N/A Rain Light Rain Showers
3:58 PM 79.0 °F - 75.9 °F 90% 29.57 in 2.5 mi West 6.9 mph - 0.32 in Rain Light Rain Showers
4:58 PM 79.0 °F - 75.9 °F 90% 29.58 in - West 11.5 mph - 0.01 in Rain Light Rain Showers
5:58 PM 77.0 °F - 75.0 °F 94% 29.59 in - WNW 8.1 mph - 0.07 in   Drizzle
6:58 PM 75.9 °F - 73.0 °F 91% 29.60 in 3.7 mi North 10.4 mph - 0.01 in   Overcast
7:58 PM 75.0 °F - 72.0 °F 90% 29.61 in 5.0 mi North 9.2 mph - N/A   Overcast
8:58 PM 75.0 °F - 71.1 °F 87% 29.62 in 6.2 mi North 9.2 mph - N/A   Mostly Cloudy
9:58 PM 75.0 °F - 71.1 °F 87% 29.62 in 6.2 mi North 8.1 mph - N/A   Mostly Cloudy
10:58 PM 73.9 °F - 71.1 °F 91% 29.63 in 5.6 mi North 4.6 mph - N/A   Mostly Cloudy
11:58 PM 73.9 °F - 71.1 °F 91% 29.65 in 5.0 mi Calm Calm - N/A   Overcast